Location: Jaite
(41.2884°N, 81.5737°W)
Time: 05:23:53
(UTC+00:00)

Cosmos 2151 Rocket - Pass Details

Date: 15 November 2025
Orbit: 612 x 635 km, 82.5° (Epoch: 04 December)

Event Time Altitude Azimuth Distance (km) Brightness Sun altitude
Rises 10:52:39 0° 354° (N) 2,937 6.9 -15.5°
Reaches altitude 10° 10:54:56 10° 357° (N) 2,021 6.0 -15.1°
Maximum altitude 10:59:23 69° 81° (E) 674 3.9 -14.3°
Drops below altitude 10° 11:03:48 10° 165° (SSE) 1,992 6.5 -13.5°
Sets 11:06:01 0° 168° (SSE) 2,890 7.4 -13.1°
